Regional Weather Roundup
Issued by NWS Cleveland, OH

Home | Current Version | Previous Version | Graphics & Text | Print | Product List | Glossary On
Versions: 1 2 3 4 5 6 7 8 9 10 11 12 13 14 15 16 17 18 19 20 21 22 23 24 25 26 27 28 29 30 31 32 33 34 35 36 37 38 39 40 41 42 43 44 45 46 47 48 49 50
643
ASUS41 KCLE 300310
RWRCLE
OHIO REGIONAL WEATHER ROUNDUP
NATIONAL WEATHER SERVICE CLEVELAND, OH
1100 PM EDT WED MAR 29 2017

NOTE: "FAIR" INDICATES FEW OR NO CLOUDS BELOW 12,000 FEET WITH NO
SIGNIFICANT WEATHER AND/OR OBSTRUCTIONS TO VISIBILITY.

OHZ001>008-015>018-024>027-034-035-043-044-300400-
   NORTHWEST OHIO

CITY           SKY/WX    TMP DP  RH WIND       PRES   REMARKS
DEFIANCE       CLOUDY    45  33  63 E10       30.14R
FINDLAY        CLOUDY    47  32  56 E12       30.11S
TOLEDO EXPRESS CLOUDY    46  32  58 E12       30.16R
TOLEDO EXEC    CLOUDY    47  33  58 E8        30.17R
LIMA           CLOUDY    46  34  62 E15       30.07F
$$

OHZ009>014-019>023-028>033-038-089-300400-
   NORTHEAST OHIO

CITY           SKY/WX    TMP DP  RH WIND       PRES   REMARKS
CLE-HOPKINS    CLOUDY    50  29  44 E10       30.16F
CLE-LAKEFRONT  PTCLDY    50  30  46 E9        30.14F
CUY CO. ARPT   CLOUDY    48  32  53 E9        30.16R
LORAIN-ELYRIA  CLOUDY    46  30  53 E7        30.13F
ASHTABULA      CLOUDY    44  32  62 E8        30.17F
AKRON-CANTON   MOCLDY    46  30  53 E10       30.14F
WOOSTER        CLOUDY    44  32  62 E8        30.13F
MANSFIELD      CLOUDY    44  30  57 E14       30.09F
YOUNGSTOWN     CLOUDY    46  29  51 E7        30.17F
$$

OHZ042-051>053-060>062-070>072-077>081-300400-
  SOUTHWEST OHIO

CITY           SKY/WX    TMP DP  RH WIND       PRES   REMARKS
CINC-COVINGTON MOCLDY    53  44  71 E14       30.03F
CINC-LUNKEN    CLEAR     46  46 100 NE5       30.06F
HAMILTON       CLEAR     53  43  68 E8        30.03F
DAYTON         PTCLDY    50  39  66 E9        30.05F
WRIGHT-PAT AFB CLEAR     53  39  60 E10       30.04F
DAYTON GENERAL CLEAR     54  39  57 E12       30.03F
WILMINGTON     CLOUDY    50  42  74 E8        30.05F
$$

OHZ036-037-039>041-045>050-054>059-063>069-073>076-082>088-300400-
  CENTRAL AND SOUTHEAST OHIO

CITY           SKY/WX    TMP DP  RH WIND       PRES   REMARKS
COLUMBUS       MOCLDY    53  36  52 E12       30.08F
OSU AIRPORT    MOCLDY    50  37  61 E14       30.08F
BOLTON FIELD   CLOUDY    53  36  51 E13       30.09F
RICKENBACK AFB CLOUDY    52  36  55 E12       30.09F
NEWARK         MOCLDY    52  32  46 E7        30.11F
MARION         PTCLDY    45  32  60 E10       30.10F
LANCASTER      CLEAR     53  36  52 E10       30.11F
ZANESVILLE     CLEAR     51  33  50 NE6       30.13F
NEW PHILLY     NOT AVBL
$$




USA.gov is the U.S. government's official web portal to all federal, state and local government web resources and services.